Location: Staunton
(38.1490°N, 79.0720°W)
Time: 02:01:32
(UTC-04:00)

ISS - Pass Details

Date: 15 March 2018
Orbit: 402 x 407 km, 51.6° (Epoch: 25 June)

Event Time Altitude Azimuth Distance (km) Brightness Sun altitude
Exits shadow 04:18:13 - 41° (NE) 2,032 0.5 -36.5°
Enters shadow 05:17:16 -64° 274° (W) 11,957 3.6 -26.0°
Maximum altitude 05:53:00 15° 22° (NNE) 1,206 -1.0 -19.3°
